www.pogodaiklimat.ru
ПОГОДА в Любляна аэропорту

Архив погоды в Любляна аэропорту (Словения)

Время
(UTC), дата
01 29.06
02 29.06
03 29.06
04 29.06
05 29.06
06 29.06
07 29.06
08 29.06
09 29.06
10 29.06
11 29.06
12 29.06
13 29.06
14 29.06
15 29.06
16 29.06
17 29.06
18 29.06
19 29.06
20 29.06
21 29.06
22 29.06
23 29.06
00 30.06
01 30.06
02 30.06
03 30.06
04 30.06
05 30.06
06 30.06
07 30.06
08 30.06
09 30.06
10 30.06
11 30.06
12 30.06
13 30.06
14 30.06
15 30.06
16 30.06
17 30.06
18 30.06
20 30.06
21 30.06
22 30.06
23 30.06
00 1.07
01 1.07
02 1.07
03 1.07
04 1.07
05 1.07
06 1.07
07 1.07
08 1.07
09 1.07
10 1.07
11 1.07
12 1.07
13 1.07
14 1.07
15 1.07
16 1.07
17 1.07
18 1.07
19 1.07
20 1.07
21 1.07
22 1.07
23 1.07
00 2.07
01 2.07
02 2.07
03 2.07
04 2.07
05 2.07
06 2.07
07 2.07
08 2.07
09 2.07
10 2.07
11 2.07
12 2.07
13 2.07
14 2.07
15 2.07
16 2.07
17 2.07
18 2.07
19 2.07
20 2.07
21 2.07
22 2.07
23 2.07
00 3.07
01 3.07
02 3.07
03 3.07
04 3.07
05 3.07
06 3.07
07 3.07
08 3.07
09 3.07
10 3.07
11 3.07
12 3.07
13 3.07
14 3.07
15 3.07
16 3.07
17 3.07
18 3.07
19 3.07
20 3.07
21 3.07
22 3.07
23 3.07
00 4.07
01 4.07
02 4.07
03 4.07
04 4.07
05 4.07
06 4.07
07 4.07
08 4.07
09 4.07
10 4.07
11 4.07
12 4.07
13 4.07
14 4.07
15 4.07
16 4.07
17 4.07
18 4.07
19 4.07
20 4.07
21 4.07
22 4.07
23 4.07
00 5.07
01 5.07
02 5.07
03 5.07
04 5.07
05 5.07
06 5.07
07 5.07
08 5.07
09 5.07
10 5.07
11 5.07
12 5.07
13 5.07
14 5.07
15 5.07
16 5.07
17 5.07
18 5.07
19 5.07
20 5.07
21 5.07
22 5.07
23 5.07
00 6.07
01 6.07
Ветер
(напр.,м/с)
Видим. Явления Облачность Т
(С)
Тd
(С)
f
(%)
Тe
(С)
Тes
(С)
Комфортность P
(гПа)
Po
(гПа)
Тmin
(С)
Tmax
(С)
R
(мм)
R24
(мм)
S
(см)
З 3 10 км слаб. ливневой дождь 9/8 400 м
[Cu med, cong Ac As]
+19.7 +19.0 96 +23 +23 комфорт 1013.4 969.7
штиль 0 20 км в посл. час ливневой дождь 5/3 400 м
[Cu Sc Ac trans Ci fib]
+19.1 +18.6 97 +21 +21 комфорт 1012.8 969.0
СЗ 1
{3}
15 км осадки на расстоянии 9/3 1500 м
[Cu med, cong Ac As Ci sp]
+19.2 +18.7 97 +22 +22 комфорт 1012.3 968.6
З 2 20 км 9/3 1500 м
[Cu med, cong Ac As Ci sp]
+19.0 +18.7 98 +21 +21 комфорт 1011.6 967.9
З 3 20 км слаб. ливневой дождь 9/4 1500 м
[Cu Sc Ac As]
+20.1 +19.4 96 +24 +24 комфорт 1011.6 968.0
З 1 30 км в посл. час ливневой дождь 9/3 1500 м
[Cu Sc Ac As Ci fib]
+21.2 +19.7 91 +26 +28 душно 1011.8 968.4 +18.7 0.7
СЗ 2 30 км 9/3 1500 м
[Cu Sc Ac As Ci fib]
+23.1 +19.7 81 +30 +33 очень
душно
1011.5 968.3
СВ 1 30 км 9/4 1500 м
[Cu Sc Ac As Ci fib]
+24.4 +19.7 75 +30 +35 очень
душно
1011.0 968.0
ЮВ 2
{6}
30 км 8/4 1500 м
[Cu Sc Ac trans Ci fib]
+27.6 +17.7 55 +32 +38 очень
душно
1010.4 967.8
В 4 30 км 8/6 1500 м
[Cu Sc Ac trans Ci fib]
+28.7 +17.9 52 +33 +37 очень
душно
1009.9 967.5
ЮВ 3 30 км 8/8 1500 м
[Cu Sc Ac trans Ci fib]
+29.3 +17.8 50 +34 +37 очень
душно
1009.2 967.0
Ю 2
{5}
30 км 8/8 1500 м
[Cu Sc Ac trans Ci fib]
+30.2 +18.0 48 +35 +38 очень
душно
1008.6 966.5
С 1 20 км гроза без осадков 8/8 1200 м
[Cb cap Ac cuf Ci ing]
+30.6 +18.7 49 +36 +39 очень
душно
1008.2 966.1
СЗ 7 20 км гроза, ливневой дождь 9/9 1200 м
[Cb cap Ac cuf Ci ing]
+24.8 +18.3 67 +29 +30 душно 1010.1 967.2
СЗ 2
{5}
30 км в посл. час гроза {ливн. дождь} 6/5 1200 м
[Cb cap Ac cuf Ci ing]
+25.8 +19.0 66 +31 +35 очень
душно
1009.5 966.8
СЗ 5 40 км 4/1 1200 м
[Cb cap Ci ing]
+26.7 +19.1 63 +32 +34 очень
душно
1009.1 966.6
СЗ 4 40 км 4/3 1500 м
[Cu Sc Ac cuf Ci ing]
+26.8 +18.9 62 +32 +33 очень
душно
1009.0 966.4
СЗ 3
{6}
30 км {гроза, ливн. дождь} 3/1 1500 м
[Cu Sc Ci ing]
+25.3 +19.4 70 +31 +31 очень
душно
1009.1 966.3 +31.0 0.0
З 2
{3}
30 км 3/1 1500 м
[Cu hum Ac cast Ci sp]
+22.4 +19.6 84 +28 +28 душно 1009.9 966.7
З 4
{5}
30 км 3/1 1500 м
[Cu hum Ac trans Ci fib]
+21.3 +18.7 85 +26 +26 душно 1010.5 967.1
З 4
{6}
30 км 1/0
[Ci fib]
+21.0 +18.6 86 +26 +26 душно 1010.7 967.2
СЗ 2
{4}
30 км ясно +20.2 +17.4 84 +24 +24 комфорт 1011.1 967.5
СЗ 2
{4}
30 км 1/0
[Ac trans]
+18.7 +16.9 89 +20 +20 тепло 1011.5 967.6
СЗ 2
{3}
30 км 1/0
[Ac trans]
+17.4 +16.1 92 +18 +18 тепло 1011.7 967.6
СЗ 1
{3}
30 км 1/0
[Ac trans]
+16.3 +15.7 96 +17 +17 по сезону 1011.6 967.3
штиль 0
{1}
30 км 1/0
[Ac trans]
+15.7 +15.2 97 +15 +15 по сезону 1011.7 967.4
штиль 0
{1}
30 км 1/1 1500 м
[Cu hum Ac trans]
+15.4 +15.1 98 +15 +15 по сезону 1012.3 967.9
В 1
{2}
40 км 1/1 1500 м
[Cu hum Ac cast]
+14.7 +14.4 98 +15 +15 по сезону 1013.0 968.5
СЗ 1 40 км 3/3 1500 м
[Cu Sc Ac cast]
+17.9 +17.4 97 +19 +20 тепло 1012.8 968.8
штиль 0
{2}
40 км 4/3 1500 м
[Cu Sc Ac cast Ci fib]
+21.7 +17.9 79 +26 +30 душно 1012.3 968.9 +14.6 0.0

{3}
40 км н/о +22.7 +16.7 69 +27 +35 душно 1012.2 968.9
штиль 0 40 км 1/1 1080 м
[Cu med, cong]
+24.9 +17.4 63 +29 +43 душно 1011.7 968.7
В 2
{3}
40 км 3/3 1200 м
[Cu med, cong]
+26.9 +18.7 61 +32 +43 очень
душно
1011.2 968.6
ЮВ 2 40 км 3/3 1200 м
[Cu med, cong]
+28.1 +17.9 54 +33 +45 очень
душно
1010.9 968.5
ЮЗ 2 40 км 4/4 1300 м
[Cu med, cong]
+28.9 +17.1 49 +33 +44 очень
душно
1010.5 968.1
Ю 1
{5}
40 км 4/4 1300 м
[Cu med, cong Ac trans]
+28.9 +15.8 45 +32 +45 душно 1010.1 967.7
ЮЗ 1
{4}
40 км 4/4 1000 м
[Cu med, cong]
+31.1 +15.1 38 +33 +44 душно 1009.7 967.6
З 1 40 км 4/4 1300 м
[Cu med, cong]
+31.6 +16.0 39 +34 +43 душно 1009.3 967.3
ЮЗ 1
{4}
40 км 4/4 1500 м
[Cu med, cong Ac trans]
+30.4 +16.8 44 +34 +40 очень
душно
1009.2 967.1
З 4
{8}
40 км 3/3 1500 м
[Cu med, cong Ac trans]
+30.9 +17.2 44 +35 +38 очень
душно
1008.9 966.9
ЮЗ 4
{7}
40 км 3/1 1500 м
[Cu med, cong Ac lent]
+30.0 +17.5 47 +34 +35 очень
душно
1008.9 966.8
ЮЗ 3
{6}
40 км 1/1 1500 м
[Cu Sc Ac trans Ci fib]
+28.3 +17.5 52 +32 +33 душно 1009.5 967.1 +31.7
ЮЗ 2
{4}
40 км 3/0
[Ci fib]
+24.3 +18.2 69 +29 +29 душно 1011.9 968.9
штиль 0
{1}
40 км 3/0
[Ci fib]
+21.3 +17.9 81 +25 +25 комфорт 1012.7 969.2
штиль 0
{1}
40 км 3/0
[Ci fib]
+19.0 +17.1 89 +20 +20 по сезону 1013.2 969.3
З 1
{2}
40 км 4/0
[Ci fib]
+18.0 +16.7 92 +19 +19 прохладно 1013.4 969.4
штиль 0
{1}
40 км 4/0
[Ci fib]
+17.7 +16.6 93 +18 +18 тепло 1013.4 969.3
СЗ 2
{2}
40 км 4/0
[Ci fib]
+16.9 +15.9 94 +17 +17 тепло 1013.8 969.6
ЮВ 1
{2}
40 км 4/0
[Ci fib]
+16.7 +16.1 96 +18 +18 тепло 1013.5 969.3
ЮВ 1
{1}
40 км 4/0
[Ci fib]
+16.0 +15.5 97 +17 +17 тепло 1013.8 969.4
З 1
{2}
40 км 4/0
[Ci fib]
+15.6 +15.1 97 +16 +16 по сезону 1014.3 969.9
СЗ 2
{3}
50 км 1/0
[Ci sp]
+17.5 +17.0 97 +18 +20 тепло 1014.3 970.2
штиль 0
{3}
50 км 1/0
[Ci sp]
+21.6 +17.2 76 +26 +31 душно 1013.9 970.4 +15.0
ЮВ 1
{2}
40 км 1/0
[Ci fib]
+23.8 +17.1 66 +28 +37 душно 1013.5 970.3
СВ 1
{3}
40 км 1/1 1500 м
[Cu hum Ci fib]
+26.3 +17.4 58 +30 +43 душно 1012.8 970.0
СВ 1
{3}
30 км 4/1 1500 м
[Cu hum Ci fib]
+28.7 +18.5 54 +34 +49 очень
душно
1012.1 969.7
З 2
{6}
30 км 4/1 1500 м
[Cu hum Ci fib]
+29.3 +16.8 47 +33 +48 душно 1011.8 969.4
СЗ 1
{4}
30 км 4/1 1500 м
[Cu hum Ci sp]
+30.5 +16.9 44 +34 +53 опасность
солнечного
удара
1011.4 969.2
СВ 1
{3}
30 км 4/3 1500 м
[Cu hum Ac trans]
+31.6 +16.7 41 +35 +48 очень
душно
1010.7 968.7
штиль 0 30 км гроза без осадков 5/3 1500 м
[Cb cap Ci ing]
+31.0 +15.4 39 +33 +47 душно 1010.5 968.3
СЗ 1
{6}
30 км в посл. час гроза 6/3 1200 м
[Cu Sc Ac trans Ci sp]
+25.8 +22.1 80 +33 +41 очень
душно
1011.4 968.6
З 3
{6}
30 км 8/3 1500 м
[Cb cap Ac cuf Ci ing]
+27.9 +20.2 63 +34 +37 очень
душно
1011.1 968.6
З 3 30 км гроза, ливневой дождь 8/4 1500 м
[Cb cap Ac cuf Ci ing]
+26.0 +18.9 65 +31 +33 очень
душно
1011.7 968.9
СЗ 2 30 км слаб. ливневой дождь, в посл. час гроза 9/4 1500 м
[Cb cap Ac cuf Ci ing]
+23.0 +18.5 76 +29 +29 очень
душно
1012.5 969.2
З 2
{6}
40 км в посл. час гроза {ливн. дождь} 6/1 1500 м
[Cu Sc Ac cuf Ci sp]
+22.1 +17.5 75 +27 +27 душно 1013.0 969.6 +32.3 0.6
З 1 40 км 4/1 1500 м
[Cu Sc Ac trans Ci sp]
+20.9 +17.9 83 +26 +26 душно 1013.8 970.2
СЗ 1 40 км 4/1 1500 м
[Cu Sc Ac cast Ci sp]
+19.6 +18.4 93 +23 +23 комфорт 1014.7 970.9
С 1
{2}
30 км 4/1 1500 м
[Cu hum Ci fib]
+18.3 +17.7 96 +20 +20 тепло 1015.5 971.5
СЗ 2
{4}
30 км 1/0
[Ci fib]
+18.0 +17.5 97 +19 +19 по сезону 1016.3 972.1
В 1
{4}
30 км 1/0
[Ci fib]
+17.2 +16.7 97 +18 +18 прохладно 1017.4 973.0
ЮЗ 1
{3}
30 км 1/0
[Ac trans Ci fib]
+16.6 +16.0 96 +17 +17 тепло 1018.0 973.5
ЮЗ 1
{3}
30 км 3/0
[Ac trans Ci fib]
+16.4 +15.9 97 +17 +17 тепло 1018.6 974.0
СЗ 1
{2}
30 км 3/3 1500 м
[Sc Ac trans Ci fib]
+16.3 +15.3 94 +17 +17 тепло 1018.9 974.3
З 2
{4}
40 км 3/3 1500 м
[Sc Ac trans Ci fib]
+15.6 +15.0 96 +15 +15 по сезону 1019.8 975.1
штиль 0
{1}
50 км 1/1 1500 м
[Sc Ac lent]
+14.9 +14.4 97 +15 +15 по сезону 1020.7 975.8
СВ 1
{2}
50 км 3/3 1500 м
[Sc Ac trans]
+17.8 +15.2 85 +19 +20 тепло 1021.1 976.7
В 1
{2}
н/о 4/4 1500 м +20.2 +15.0 72 +24 +26 комфорт 1021.2 977.1 +14.1
ЮВ 2 50 км 3/3 1500 м
[Cu Sc Ac trans]
+22.5 +12.7 54 +25 +31 комфорт 1021.2 977.4
ЮВ 4 50 км 6/6 1500 м
[Cu Sc]
+22.3 +12.3 53 +25 +28 комфорт 1021.5 977.7
ЮВ 3
{5}
50 км 6/6 1500 м
[Cu Sc]
+23.6 +13.5 53 +26 +31 жарко 1021.3 977.7
В 3 50 км 6/6 1500 м
[Cu Sc]
+24.7 +13.9 51 +27 +33 жарко 1021.3 977.9
В 4 50 км 3/1 1500 м
[Cu Sc Ac trans]
+26.2 +13.7 46 +28 +38 жарко 1020.4 977.2
ЮВ 4
{7}
50 км 3/3 1500 м
[Cu hum]
+26.8 +13.9 45 +29 +37 жарко 1019.9 976.8
ЮВ 3
{8}
50 км 3/3 1500 м
[Cu hum]
+27.6 +15.3 47 +30 +39 жарко 1019.3 976.3
В 4
{7}
50 км 1/1 1500 м
[Cu hum]
+27.8 +15.5 47 +31 +38 душно 1018.9 976.0
В 3
{6}
50 км 1/1 1500 м
[Cu hum]
+28.3 +15.6 46 +31 +37 душно 1018.6 975.7
ЮВ 3
{6}
50 км 1/1 1500 м
[Cu hum]
+27.9 +15.2 46 +31 +34 душно 1018.0 975.2
ЮВ 3
{5}
50 км 1/1 1500 м
[Cu hum]
+27.3 +15.3 48 +30 +32 душно 1017.8 974.9
ЮВ 4
{6}
н/о ясно +25.9 +15.6 53 +29 +29 душно 1018.0 974.8 +28.6
ЮВ 3
{4}
50 км 1/0
[Ac trans Ci fib]
+22.6 +15.7 65 +27 +27 душно 1019.1 975.5
ЮВ 1
{3}
50 км 1/0
[Ac trans Ci fib]
+20.2 +15.6 75 +24 +24 комфорт 1020.3 976.3
штиль 0
{1}
н/о ясно +19.0 +15.1 78 +20 +20 тепло 1020.7 976.4
С 1
{2}
50 км 1/0
[Ac trans Ci fib]
+17.9 +15.0 83 +19 +19 по сезону 1020.8 976.4
СЗ 1
{2}
50 км 1/0
[Ci fib]
+16.3 +14.1 87 +17 +17 прохладно 1021.1 976.4
СЗ 2
{2}
н/о ясно +15.7 +14.2 91 +16 +16 по сезону 1020.9 976.2
З 1
{2}
50 км 1/0
[Ci fib]
+15.2 +13.9 92 +16 +16 по сезону 1020.8 976.0
штиль 0
{1}
50 км 1/0
[Ci fib]
+14.5 +13.9 96 +14 +14 по сезону 1020.4 975.5
Ю 1
{1}
50 км 4/0
[Ac trans Ci sp]
+14.1 +13.5 96 +14 +14 по сезону 1020.3 975.3
штиль 0
{1}
50 км 4/0
[Ac trans Ci sp]
+14.2 +13.7 97 +14 +14 по сезону 1020.2 975.2
В 1
{1}
50 км 3/0
[Ac trans Ci sp]
+16.6 +15.0 90 +17 +19 по сезону 1019.9 975.3
В 1
{2}
50 км 1/0
[Ac trans Ci sp]
+19.8 +15.5 76 +23 +28 комфорт 1019.5 975.5 +13.5
В 1
{2}
50 км 1/0
[Ac trans Ci sp]
+21.6 +14.7 65 +25 +33 комфорт 1019.2 975.4
ЮВ 1
{3}
50 км 1/1 2000 м
[Cu hum Ac trans Ci fib]
+24.7 +13.9 51 +27 +39 жарко 1018.5 975.1
СВ 1
{4}
50 км 1/1 1500 м
[Cu hum Ac trans Ci fib]
+25.8 +14.3 49 +28 +44 жарко 1018.1 974.9
В 3
{5}
50 км 1/1 1500 м
[Cu hum Ac lent Ci fib]
+27.2 +13.9 44 +29 +43 жарко 1017.4 974.5

{4}
50 км н/о +28.8 +15.0 43 +31 +45 жарко 1016.9 974.2
ЮВ 1
{5}
50 км 1/1 1500 м
[Cu hum Ci fib]
+30.0 +15.3 41 +33 +51 опасность
солнечного
удара
1016.1 973.6
В 2
{5}
50 км 1/1 2000 м
[Cu hum Ci fib]
+31.3 +15.7 39 +34 +48 душно 1015.3 973.0
ЮВ 2
{6}
50 км 1/1 2000 м
[Cu hum Ac lent Ci fib]
+31.7 +14.4 35 +33 +44 жарко 1014.9 972.6
ЮВ 4
{8}
50 км 1/1 2000 м
[Cu hum Ac lent Ci fib]
+31.9 +13.2 32 +33 +38 жарко 1014.6 972.4
ЮВ 5
{9}
50 км 3/1 2000 м
[Cu med, cong Ac lent Ci fib]
+31.2 +14.8 37 +33 +35 жарко 1014.5 972.3
ЮВ 4
{6}
50 км 1/1 2000 м
[Cu med, cong Ac lent]
+30.6 +15.5 40 +33 +34 душно 1014.8 972.4
ЮВ 4
{5}
50 км 3/1 1500 м
[Cu Sc Ac cuf Ci ing]
+28.4 +16.3 48 +32 +32 душно 1015.1 972.5 +32.7
СЗ 1 50 км 4/1 1500 м
[Cu Sc Ac cuf Ci ing]
+24.5 +17.0 63 +28 +28 душно 1016.4 973.2
штиль 0 50 км 4/1 1500 м
[Cu Sc Ac cuf Ci ing]
+22.3 +17.2 73 +27 +27 душно 1017.3 973.7
З 1
{1}
50 км 1/1 2000 м
[Sc Ac cuf Ci ing]
+20.5 +16.5 78 +25 +25 комфорт 1018.0 974.1
ЮВ 1
{1}
50 км 1/0
[Ci fib]
+19.2 +16.2 83 +22 +22 комфорт 1018.0 973.9
З 2
{2}
50 км 3/1 1500 м
[Sc Ci fib]
+18.2 +16.0 87 +19 +19 по сезону 1018.3 974.0
штиль 0
{1}
40 км 5/1 1500 м
[Sc Ac trans Ci fib]
+18.3 +16.5 89 +19 +19 тепло 1018.5 974.3
В 1
{2}
40 км 6/1 1500 м
[Sc Ac trans Ci fib]
+17.9 +16.2 90 +19 +19 тепло 1017.8 973.6
СЗ 1
{2}
40 км 4/1 1500 м
[Sc Ac trans Ci fib]
+17.3 +16.0 92 +18 +18 тепло 1017.7 973.4
штиль 0
{1}
40 км 4/1 1500 м
[Sc Ac trans Ci fib]
+16.3 +15.2 93 +16 +16 по сезону 1017.9 973.4
штиль 0
{1}
40 км 6/1 1500 м
[Sc Ac trans Ci fib]
+16.5 +15.7 95 +16 +17 по сезону 1018.1 973.6
ЮЗ 1
{2}
40 км 8/1 2000 м
[Cu hum Ac cast Ci fib]
+18.7 +16.5 87 +21 +22 комфорт 1018.0 973.8
В 1
{2}
50 км в посл. час дождь 4/1
[Cu hum Ac cast Ci fib]
+21.9 +17.1 74 +26 +30 душно 1017.1 973.5 +15.6 0.0 0.0
В 1
{3}
50 км 4/1 2000 м
[Cu hum Ac cast Ci sp]
+24.3 +16.8 63 +28 +35 душно 1016.5 973.2
ЮВ 1
{3}
40 км 4/1 2000 м
[Cu hum Ac cast Ci sp]
+26.5 +16.1 53 +30 +40 душно 1015.7 972.8
В 1
{3}
50 км 5/1 2000 м
[Cu hum Ac cast Ci sp]
+28.0 +16.6 50 +32 +44 душно 1015.2 972.5
В 3
{5}
50 км 5/1 2000 м
[Cu hum Ac cast Ci sp]
+31.0 +12.8 33 +32 +42 жарко 1014.8 972.4
СВ 3
{5}
50 км 6/1 2000 м
[Cu hum Ac As Ci sp]
+32.0 +12.8 31 +33 +43 жарко 1014.5 972.3
В 4
{6}
50 км 6/1 2000 м
[Cu hum Ac As Ci sp]
+32.3 +14.9 35 +34 +42 душно 1013.6 971.5
В 4
{8}
50 км 6/1 2000 м
[Cu med, cong Ac cast Ci sp]
+33.1 +15.1 34 +35 +42 душно 1012.9 971.0
В 5 30 км осадки на расстоянии 9/3 1500 м
[Cb cap Ac cuf Ci ing]
+31.4 +15.8 39 +34 +37 душно 1012.8 970.7
В 3
{9}
25 км слаб. ливневой дождь {гроза} 6/3 1000 м
[Cb cap Ac cuf Ci fib]
+27.8 +17.6 54 +32 +36 душно 1013.1 970.5
В 5 30 км в посл. час ливневой дождь 6/3 1300 м
[Cb cap Ac cuf Ci sp]
+29.8 +15.5 42 +33 +34 душно 1012.0 969.7
В 4 35 км 5/1 1500 м
[Cb cap Ac lent Ci fib]
+29.7 +15.0 41 +32 +33 душно 1011.9 969.6
В 2
{5}
30 км {гроза, ливн. дождь} 8/1 1500 м
[Cu Sc Ac As Ci fib]
+27.8 +15.1 46 +30 +31 жарко 1012.7 970.0 +33.9
В 2 30 км 8/1 1500 м
[Cu Sc Ac cast]
+26.1 +17.5 59 +30 +30 душно 1013.7 970.8
В 1
{3}
30 км 3/1 1500 м
[Cu med, cong Ac trans Ci ing]
+23.7 +17.2 67 +28 +28 душно 1014.0 970.8
ЮВ 3
{5}
30 км 5/3 1500 м
[Cb cap Ac cuf Ci ing]
+25.1 +17.3 62 +29 +29 душно 1013.6 970.6
В 3 30 км зарница 8/3 1500 м
[Cb cap Ac cuf Ci ing]
+23.6 +17.8 70 +28 +28 душно 1013.7 970.5
ЮВ 6 30 км зарница 8/4 1500 м
[Cb cap Ac cuf Ci ing]
+24.0 +16.8 64 +28 +28 душно 1013.5 970.3
СВ 2
{7}
30 км гроза без осадков {ливн. дождь} 8/6 1500 м
[Cb cap Ac trans Cs]
+22.0 +17.2 74 +26 +26 душно 1015.6 972.0 0.0
ЮВ 4 30 км в посл. час гроза 8/4 1200 м
[Cu Sc Ac trans Cs]
+20.9 +16.9 78 +25 +25 комфорт 1015.2 971.5
З 4 30 км 6/3 480 м
[Cu Sc Ac trans Ci sp]
+20.0 +16.0 78 +23 +23 комфорт 1016.1 972.2
СВ 3
{6}
н/о слаб. дождь {гроза, ливн. дождь} 10/10 750 м +18.0 +16.7 92 +18 +18 тепло 1016.4 972.3
З 3 20 км в посл. час ливневой дождь 8/4 1500 м
[Cu Sc Ac trans Ci sp]
+17.7 +17.1 96 +18 +18 тепло 1016.8 972.6
С 2 20 км 6/1 900 м
[Cu Sc Ac trans Ci sp]
+17.6 +16.6 94 +18 +19 тепло 1017.0 972.7
штиль 0
{3}
30 км {ливн. дождь} 3/1 300 м
[Cu Sc Ac trans Ci sp]
+19.2 +17.7 91 +21 +26 комфорт 1016.3 972.4 +17.5 2 2.2
СВ 1 40 км 3/1 300 м
[Cu hum Ac trans Ci fib]
+20.8 +17.8 83 +26 +33 душно 1016.2 972.5
ЮВ 2 50 км 3/3 900 м
[Cu hum Ac trans Ci fib]
+22.9 +18.0 74 +28 +37 душно 1016.0 972.5
ЮВ 3
{6}
50 км 3/1 1200 м
[Cu hum Ac trans Ci fib]
+24.3 +17.3 65 +28 +38 душно 1015.8 972.6
ЮВ 2
{6}
50 км 4/3 1500 м
[Cu med, cong Ac trans Ci fib]
+25.9 +15.9 54 +29 +41 душно 1015.4 972.4
ЮВ 3 50 км 4/3 1300 м
[Cu med, cong Ac trans Ci fib]
+26.7 +15.7 51 +30 +40 душно 1014.8 971.9
В 4
{7}
50 км 8/3 1300 м
[Cu med, cong Ac trans Ci fib]
+26.8 +15.2 49 +30 +35 душно 1014.4 971.6
ЮВ 4 35 км 8/3 1500 м
[Cu med, cong Ac cuf Ci ing]
+27.7 +16.6 51 +31 +36 душно 1014.0 971.3
В 3 30 км 9/3 1500 м
[Cu Sc Ac trans Ci sp]
+26.5 +16.4 54 +30 +34 душно 1014.1 971.2
ЮВ 1
{3}
20 км 9/5 1500 м
[Cu Sc Ac cuf Ci ing]
+26.9 +16.5 53 +30 +33 душно 1014.1 971.3
ЮВ 2 20 км осадки на расстоянии 9/4 1500 м
[Cu Sc Ac cuf Ci ing]
+26.3 +17.1 57 +30 +32 душно 1014.6 971.7
ЮВ 1 15 км осадки на расстоянии 8/5 1500 м
[Cb cap Ac cuf Ci ing]
+25.7 +16.8 58 +29 +30 душно 1015.0 972.0
В 1
{3}
30 км в посл. час гроза 8/4 1080 м
[Cb cap Ac cuf Ci ing]
+24.5 +18.7 70 +29 +29 душно 1015.1 972.0 +28.2
З 3 30 км 4/4 1080 м
[Cb cap Ac trans]
+22.6 +15.4 64 +27 +27 душно 1015.9 972.4
З 2 35 км 4/1 1300 м
[Cb cap Ac trans]
+20.6 +16.4 77 +24 +24 комфорт 1017.8 973.9
СЗ 2
{3}
40 км {гроза} 3/3 1500 м
[Cu hum Ac lent]
+18.7 +16.1 85 +20 +20 тепло 1018.3 974.2
С 1
{3}
30 км 3/1 1500 м
[Cu hum Ac trans]
+17.2 +15.5 90 +18 +18 по сезону 1018.9 974.5
З 2
{3}
30 км 3/1 1500 м
[Cu hum Ac trans Ci fib]
+16.9 +14.5 86 +17 +17 прохладно 1019.2 974.7
З 4
{5}
30 км {гроза} 3/1 120 м
[Cu hum Ac trans Ci fib]
+16.4 +14.2 87 +16 +16 тепло 1019.7 975.1
З 2
{4}
30 км 5/1 1500 м
[Sc Ac trans]
+16.0 +13.7 86 +16 +16 тепло 1019.5 974.8
Местоположение метеостанции Любляна аэропорт (Словения): широта 46.22 долгота 14.48 высота над уровнем моря 385 м.
В архиве по умолчанию представлена погода в Любляна аэропорту за последнюю неделю. Архивные данные за месяц целиком и за предыдущие месяцы, начиная с января 2011 года, Вы можете получить, выбрав интересующий диапазон дат из раскрывающегося списка и нажав кнопку "Найти!".
*Определитесь, кто Вы:
Внимание! Время в таблицах - всемирное. Для получения местного времени необходимо прибавить поправку, которая равна 1 ч.
Смотрите также архив погоды в соседних городах и на ближайших метеорологических станциях:
Партнеры нашего сайта:      
Пояснения к столбцам:
  • Ветер - указаны скорость ветра в м/с - средняя за 10 мин, порывы в срок и между сроками (в фигурных скобках) и направление, откуда дует ветер: С - северный,
  • СВ - северо-восточный, В - восточный, ЮВ - юго-восточный, Ю - южный, ЮЗ - юго-западный, З - западный, СЗ - северо-западный.
  • Видимость - горизонтальная дальность видимости в метрах или километрах. При видимости от 1 до 10 км при отсутствии осадков обычно наблюдается дымка, при ухудшении видимости до 1 км и менее - туман. В сухую погоду видимость может ухудшаться дымом, пылью или мглою.
  • Явления - указаны атмосферные явления, наблюдавшиеся в срок или в последний час перед сроком; фигурными скобками обозначены явления, наблюдавшиеся между сроками (за 1-3 часа до срока); квадратными скобками обозначены град или гололедные отложения с указанием их диаметра в мм.
  • Облачность - указаны через наклонную черту общая и нижняя облачность в баллах и высота нижней границы облаков в метрах; квадратными скобками обозначены формы облаков: Ci - перистые, Cs - перисто-слоистые, Cc - перисто-кучевые, Ac - высококучевые, As - высокослоистые, Sc - слоисто-кучевые, Ns - слоисто-дождевые, Cu - кучевые, Cb - кучево-дождевые. Подробнее классификацию облаков см. в Атласе облаков (PDF).
  • T - Температура воздуха - температура, измеренная на высоте 2 м над землей.
  • Td - Температура точки росы - температура, при понижении до которой содержащийся в воздухе водяной пар достигнет насыщения.
  • f - Относительная влажность воздуха - влажноcть воздуха, измеренная на высоте 2 м над землей.
  • Te - Эффективная температура - температура, которую ощущает одетый по сезону человек в тени. Характеристика душности погоды. При расчете учитывается влияние влажности воздуха и скорости ветра на теплоощущения человека.
  • Tes - Эффективная температура на солнце - температура, которую ощущает человек, с поправкой на солнечный нагрев. Характеристика знойности погоды. Зависит от высоты солнца над горизонтом, облачности и скорости ветра. Ночью, в пасмурную погоду, а также при ветре 12 м/с и более поправка равна нулю.
  • P - Атмосферное давление - приведенное к уровню моря атмосферное давление.
  • Po - Атмосферное давление - измеренное на уровне метеостанции атмосферное давление.
  • Tmin - Минимальная температура - минимум температуры воздуха на высоте 2 м над землей.
  • Tmax - Максимальная температура - максимум температуры воздуха на высоте 2 м над землей.
  • R - Количество осадков - Количество выпавших осадков за период времени, мм. При наведении курсора мыши на число - период времени, за который выпало указанное количество осадков.
  • R24 - Количество осадков - Количество выпавших осадков за 24 часа, мм.
  • S - Снежный покров - Высота снежного покрова, см. При наведении курсора мыши на число - состояние снежного покрова и степень покрытия местности в баллах.